Siren, WI

4:32 PM CST on December 07, 2016 (GMT -0600)
Burnett County

Weather History for KRZN - May, 2013

Change the Weather History Date:

Thursday, May 23, 2013

  Actual Average Record
Temperature  
Mean Temperature 48 °F -  
Max Temperature 60 °F - - ()
Min Temperature 35 °F - - ()
Degree Days  
Heating Degree Days 16    
Moisture  
Dew Point 29 °F    
Average Humidity 50    
Maximum Humidity 83    
Minimum Humidity 21    
Precipitation  
Precipitation 0.01 in - - ()
Sea Level Pressure  
Sea Level Pressure 30.24 in    
Wind  
Wind Speed 10 mph (NE)    
Max Wind Speed 18 mph    
Max Gust Speed 26 mph    
Visibility 10 miles    
Events      
T = Trace of Precipitation, MM = Missing Value Source: NWS Daily Summary

Daily Weather History Graph

Daily Weather History Graph

Search for Another Location

Airport or City:

Trip Planner

Search our weather history database for the weather conditions in past years. The results will help you decide how hot, cold, wet, or windy it might be!

Date:

Astronomy

May. 23, 2013 Rise Set
Actual Time 5:29 AM CDT 8:43 PM CDT
Civil Twilight 4:53 AM CDT 9:19 PM CDT
Nautical Twilight 4:06 AM CDT 10:07 PM CDT
Astronomical Twilight 3:08 AM CDT 11:05 PM CDT
Moon 7:13 PM CDT (5/23) 4:20 AM CDT (5/23)
Length of Visible Light 16h 26m
Length of Day
15h 14m
Waxing Gibbous, 97% of the Moon is Illuminated
May 23
Waxing Gibbous
May 24
Full
May 31
Last Quarter
Jun 8
New
Jun 16
First Quarter

Hourly Weather History & Observations

Time (CDT) Temp. Windchill Dew Point Humidity Pressure Visibility Wind Dir Wind Speed Gust Speed Precip Events Conditions
12:15 AM 48.0 °F - 40.1 °F 74% 30.05 in 10.0 mi ENE 8.1 mph - N/A   Clear
12:35 AM 47.7 °F - 39.6 °F 73% 30.05 in 10.0 mi ENE 8.1 mph 17.3 mph N/A   Clear
12:55 AM 47.1 °F - 39.2 °F 74% 30.06 in 10.0 mi ENE 10.4 mph - N/A   Clear
1:15 AM 46.4 °F 41.5 °F 37.9 °F 72% 30.07 in 10.0 mi NE 10.4 mph 18.4 mph N/A   Clear
1:35 AM 45.9 °F 40.4 °F 36.5 °F 70% 30.08 in 10.0 mi ENE 11.5 mph 19.6 mph N/A   Clear
1:55 AM 45.3 °F 40.1 °F 36.3 °F 71% 30.08 in 10.0 mi ENE 10.4 mph - N/A   Clear
2:15 AM 44.8 °F 39.4 °F 35.6 °F 70% 30.09 in 10.0 mi NE 10.4 mph 17.3 mph N/A   Clear
2:35 AM 43.7 °F 38.6 °F 35.8 °F 74% 30.09 in 10.0 mi NE 9.2 mph - N/A   Clear
2:55 AM 43.7 °F 37.3 °F 35.6 °F 73% 30.10 in 10.0 mi NE 12.7 mph 18.4 mph N/A   Clear
3:15 AM 42.8 °F 38.0 °F 35.2 °F 75% 30.11 in 10.0 mi NE 8.1 mph - N/A   Clear
3:35 AM 42.3 °F 36.8 °F 34.7 °F 75% 30.12 in 10.0 mi NE 9.2 mph 17.3 mph N/A   Clear
3:55 AM 41.9 °F 35.9 °F 33.1 °F 71% 30.13 in 10.0 mi NE 10.4 mph 18.4 mph N/A   Clear
4:15 AM 41.9 °F 35.0 °F 32.0 °F 68% 30.14 in 10.0 mi NE 12.7 mph 23.0 mph N/A   Clear
4:35 AM 41.4 °F 34.3 °F 32.0 °F 69% 30.15 in 10.0 mi NE 12.7 mph 17.3 mph 0.01 in   Clear
4:55 AM 41.0 °F 34.7 °F 32.0 °F 70% 30.16 in 10.0 mi NE 10.4 mph 17.3 mph 0.01 in   Clear
5:15 AM 40.3 °F 33.4 °F 32.0 °F 72% 30.18 in 10.0 mi NE 11.5 mph 17.3 mph N/A   Clear
5:35 AM 40.1 °F 34.1 °F 32.0 °F 73% 30.18 in 10.0 mi NE 9.2 mph - N/A   Clear
5:55 AM 40.1 °F 34.7 °F 32.0 °F 73% 30.19 in 10.0 mi NE 8.1 mph - N/A   Clear
6:15 AM 40.6 °F 35.4 °F 32.0 °F 71% 30.20 in 10.0 mi NE 8.1 mph 17.3 mph N/A   Clear
6:35 AM 41.2 °F 35.0 °F 32.0 °F 70% 30.21 in 10.0 mi NE 10.4 mph - N/A   Clear
6:55 AM 41.9 °F 36.3 °F 32.0 °F 68% 30.22 in 10.0 mi ENE 9.2 mph - N/A   Clear
7:15 AM 42.4 °F 37.5 °F 32.0 °F 67% 30.22 in 10.0 mi NE 8.1 mph - N/A   Clear
7:35 AM 43.2 °F 37.0 °F 32.0 °F 65% 30.23 in 10.0 mi NE 11.5 mph 18.4 mph N/A   Clear
7:55 AM 43.3 °F 37.7 °F 30.4 °F 60% 30.24 in 10.0 mi NE 10.4 mph 23.0 mph N/A   Clear
8:15 AM 44.1 °F 36.2 °F 29.7 °F 57% 30.25 in 10.0 mi NE 18.4 mph 26.5 mph N/A   Clear
8:35 AM 44.8 °F 37.4 °F 29.1 °F 54% 30.25 in 10.0 mi NE 17.3 mph - N/A   Clear
8:55 AM 46.0 °F 39.9 °F 30.4 °F 54% 30.26 in 10.0 mi NE 13.8 mph 19.6 mph N/A   Clear
9:15 AM 46.8 °F - 29.5 °F 51% 30.27 in 10.0 mi NE 15.0 mph 18.4 mph N/A   Clear
9:35 AM 47.3 °F - 28.2 °F 48% 30.27 in 10.0 mi NNE 16.1 mph 21.9 mph N/A   Clear
9:55 AM 48.7 °F - 28.9 °F 46% 30.27 in 10.0 mi ENE 11.5 mph 17.3 mph N/A   Clear
10:15 AM 48.7 °F - 27.1 °F 43% 30.27 in 10.0 mi NE 11.5 mph 17.3 mph N/A   Clear
10:35 AM 50.0 °F - 29.3 °F 45% 30.27 in 10.0 mi North 15.0 mph 20.7 mph N/A   Clear
10:55 AM 51.1 °F - 29.3 °F 43% 30.28 in 10.0 mi NE 9.2 mph 20.7 mph N/A   Clear
11:15 AM 52.2 °F - 30.0 °F 43% 30.28 in 10.0 mi North 13.8 mph 18.4 mph N/A   Clear
11:35 AM 52.5 °F - 29.1 °F 41% 30.28 in 10.0 mi NNE 13.8 mph 17.3 mph N/A   Clear
11:55 AM 53.4 °F - 29.5 °F 40% 30.28 in 10.0 mi NNE 12.7 mph 18.4 mph N/A   Clear
12:15 PM 54.5 °F - 28.6 °F 37% 30.28 in 10.0 mi NNE 15.0 mph 24.2 mph N/A   Clear
12:35 PM 54.7 °F - 29.7 °F 38% 30.29 in 10.0 mi NNE 8.1 mph 21.9 mph N/A   Clear
12:55 PM 55.6 °F - 30.4 °F 38% 30.28 in 10.0 mi North 12.7 mph 20.7 mph N/A   Clear
1:15 PM 56.1 °F - 28.8 °F 35% 30.29 in 10.0 mi NNE 11.5 mph 23.0 mph N/A   Clear
1:35 PM 56.5 °F - 27.3 °F 33% 30.28 in 10.0 mi North 16.1 mph 21.9 mph N/A   Clear
1:55 PM 57.6 °F - 25.5 °F 29% 30.29 in 10.0 mi NE 17.3 mph 20.7 mph N/A   Clear
2:15 PM 57.4 °F - 25.5 °F 29% 30.29 in 10.0 mi NE 9.2 mph 20.7 mph N/A   Clear
2:35 PM 58.1 °F - 25.3 °F 28% 30.29 in 10.0 mi ENE 15.0 mph 23.0 mph N/A   Clear
2:55 PM 58.5 °F - 23.7 °F 26% 30.29 in 10.0 mi ENE 15.0 mph 19.6 mph N/A   Clear
3:15 PM 58.6 °F - 23.2 °F 26% 30.29 in 10.0 mi ENE 10.4 mph 23.0 mph N/A   Clear
3:35 PM 59.4 °F - 24.4 °F 26% 30.29 in 10.0 mi ENE 10.4 mph 19.6 mph N/A   Clear
3:55 PM 59.9 °F - 25.5 °F 27% 30.29 in 10.0 mi ENE 12.7 mph 17.3 mph N/A   Clear
4:15 PM 60.1 °F - 25.5 °F 27% 30.29 in 10.0 mi NE 8.1 mph - N/A   Clear
4:35 PM 60.6 °F - 26.1 °F 27% 30.29 in 10.0 mi ENE 9.2 mph 18.4 mph N/A   Clear
4:55 PM 60.3 °F - 23.5 °F 24% 30.29 in 10.0 mi ENE 9.2 mph - N/A   Clear
5:15 PM 60.4 °F - 25.7 °F 27% 30.29 in 10.0 mi East 6.9 mph - N/A   Clear
5:35 PM 60.4 °F - 25.3 °F 26% 30.29 in 10.0 mi NNE 9.2 mph - N/A   Clear
5:55 PM 60.1 °F - 23.2 °F 24% 30.29 in 10.0 mi ENE 10.4 mph - N/A   Clear
6:15 PM 60.1 °F - 21.4 °F 23% 30.30 in 10.0 mi ENE 8.1 mph - N/A   Clear
6:35 PM 59.4 °F - 19.8 °F 22% 30.30 in 10.0 mi NE 8.1 mph - N/A   Clear
6:55 PM 59.0 °F - 19.6 °F 22% 30.30 in 10.0 mi NE 6.9 mph - N/A   Clear
7:15 PM 58.8 °F - 19.0 °F 21% 30.30 in 10.0 mi NE 5.8 mph - N/A   Clear
7:35 PM 58.1 °F - 19.4 °F 22% 30.30 in 10.0 mi East 5.8 mph - N/A   Clear
7:55 PM 57.2 °F - 19.4 °F 23% 30.30 in 10.0 mi East 5.8 mph - N/A   Clear
8:15 PM 56.3 °F - 21.0 °F 25% 30.30 in 10.0 mi Calm Calm - N/A   Clear
8:35 PM 54.0 °F - 27.9 °F 37% 30.30 in 10.0 mi SE 6.9 mph - N/A   Clear
8:55 PM 52.7 °F - 29.1 °F 40% 30.31 in 10.0 mi ESE 4.6 mph - N/A   Clear
9:15 PM 51.4 °F - 29.3 °F 43% 30.32 in 10.0 mi ESE 3.5 mph - N/A   Clear
9:35 PM 50.2 °F - 29.8 °F 46% 30.32 in 10.0 mi Calm Calm - N/A   Clear
9:55 PM 48.2 °F - 31.5 °F 52% 30.33 in 10.0 mi ESE 4.6 mph - N/A   Clear
10:15 PM 47.3 °F - 31.3 °F 54% 30.34 in 10.0 mi SE 3.5 mph - N/A   Clear
10:35 PM 46.8 °F - 30.9 °F 54% 30.35 in 10.0 mi Calm Calm - N/A   Clear
10:55 PM 40.3 °F - 31.6 °F 71% 30.34 in 10.0 mi Calm Calm - N/A   Clear
11:15 PM 40.1 °F - 31.8 °F 72% 30.35 in 10.0 mi Calm Calm - N/A   Clear
11:35 PM 37.6 °F - 31.6 °F 79% 30.35 in 10.0 mi Calm Calm - N/A   Clear
11:55 PM 35.8 °F - 31.1 °F 83% 30.36 in 10.0 mi Calm Calm - N/A   Clear